Beatrice, NE

7:11 PM CST on February 07, 2016 (GMT -0600)
Beatrice Municipal

Weather History for KBIE - January, 2009

Change the Weather History Date:

Tuesday, January 6, 2009

  Actual Average Record
Temperature  
Mean Temperature 29 °F -  
Max Temperature 44 °F 30 °F 64 °F (1956)
Min Temperature 14 °F 9 °F -15 °F (1971)
Degree Days  
Heating Degree Days 36    
Moisture  
Dew Point 14 °F    
Average Humidity 60    
Maximum Humidity 86    
Minimum Humidity 31    
Precipitation  
Precipitation 0.00 in - - ()
Sea Level Pressure  
Sea Level Pressure 29.58 in    
Wind  
Wind Speed 7 mph (WSW)    
Max Wind Speed 14 mph    
Max Gust Speed 21 mph    
Visibility 10 miles    
Events      
Averages and records for this station are not official NWS values.
T = Trace of Precipitation, MM = Missing Value Source: NWS Daily Summary

Daily Weather History Graph

Daily Weather History Graph

Search for Another Location

Airport or City:

Trip Planner

Search our weather history database for the weather conditions in past years. The results will help you decide how hot, cold, wet, or windy it might be!

Date:

Astronomy

Jan. 06, 2009 Rise Set
Actual Time 7:49 AM CST 5:16 PM CST
Civil Twilight 7:19 AM CST 5:46 PM CST
Nautical Twilight 6:45 AM CST 6:20 PM CST
Astronomical Twilight 6:12 AM CST 6:53 PM CST
Moon 12:51 PM CST (1/6) 2:57 AM CST (1/6)
Length of Visible Light 10h 27m
Length of Day
9h 26m
Waxing Gibbous, 74% of the Moon is Illuminated
Jan 6
Waxing Gibbous
Jan 10
Full
Jan 17
Last Quarter
Jan 26
New
Feb 2
First Quarter

Hourly Weather History & Observations

Time (CST) Temp. Windchill Dew Point Humidity Pressure Visibility Wind Dir Wind Speed Gust Speed Precip Events Conditions
12:10 AM 23.0 °F 13.9 °F 10.4 °F 59% 29.66 in 10.0 mi SSE 8.1 mph - N/A   Clear
12:30 AM 23.0 °F 14.7 °F 10.4 °F 59% 29.65 in 10.0 mi SSE 6.9 mph - N/A   Clear
12:50 AM 23.0 °F 14.7 °F 10.4 °F 59% 29.64 in 10.0 mi SSE 6.9 mph - N/A   Clear
1:10 AM 21.2 °F 14.9 °F 10.4 °F 63% 29.64 in 10.0 mi SSE 4.6 mph - N/A   Clear
1:30 AM 23.0 °F 17.0 °F 10.4 °F 59% 29.64 in 10.0 mi SSE 4.6 mph - N/A   Clear
1:50 AM 23.0 °F 13.1 °F 10.4 °F 59% 29.61 in 10.0 mi SSE 9.2 mph - N/A   Clear
2:10 AM 21.2 °F 13.6 °F 12.2 °F 68% 29.62 in 10.0 mi South 5.8 mph - N/A   Clear
2:30 AM 21.2 °F 12.6 °F 12.2 °F 68% 29.62 in 10.0 mi South 6.9 mph - N/A   Clear
2:50 AM 21.2 °F 12.6 °F 12.2 °F 68% 29.61 in 10.0 mi SSE 6.9 mph - N/A   Clear
3:10 AM 19.4 °F 11.5 °F 12.2 °F 74% 29.62 in 10.0 mi South 5.8 mph - N/A   Clear
3:30 AM 19.4 °F 11.5 °F 12.2 °F 74% 29.62 in 10.0 mi South 5.8 mph - N/A   Clear
3:50 AM 17.6 °F 10.7 °F 10.4 °F 73% 29.61 in 10.0 mi South 4.6 mph - N/A   Clear
4:10 AM 19.4 °F 14.3 °F 12.2 °F 74% 29.60 in 10.0 mi South 3.5 mph - N/A   Clear
4:30 AM 17.6 °F 9.3 °F 10.4 °F 73% 29.60 in 10.0 mi South 5.8 mph - N/A   Clear
4:50 AM 15.8 °F 5.1 °F 10.4 °F 79% 29.60 in 10.0 mi South 8.1 mph - N/A   Clear
5:10 AM 17.6 °F 12.3 °F 10.4 °F 73% 29.60 in 10.0 mi SSW 3.5 mph - N/A   Clear
5:30 AM 14.0 °F 8.2 °F 10.4 °F 86% 29.59 in 10.0 mi South 3.5 mph - N/A   Clear
5:50 AM 14.0 °F 6.5 °F 8.6 °F 79% 29.59 in 10.0 mi SSW 4.6 mph - N/A   Clear
6:10 AM 14.0 °F 5.1 °F 10.4 °F 86% 29.59 in 10.0 mi SSW 5.8 mph - N/A   Clear
6:30 AM 14.0 °F 6.5 °F 10.4 °F 86% 29.59 in 10.0 mi SSW 4.6 mph - N/A   Clear
6:50 AM 15.8 °F 8.6 °F 10.4 °F 79% 29.59 in 10.0 mi SW 4.6 mph - N/A   Clear
7:10 AM 14.0 °F - 10.4 °F 86% 29.59 in 10.0 mi Calm Calm - N/A   Clear
7:30 AM 14.0 °F - 8.6 °F 79% 29.58 in 10.0 mi Calm Calm - N/A   Clear
7:50 AM 15.8 °F - 10.4 °F 79% 29.58 in 10.0 mi Calm Calm - N/A   Clear
8:10 AM 15.8 °F 10.2 °F 10.4 °F 79% 29.58 in 10.0 mi SSW 3.5 mph - N/A   Clear
8:30 AM 19.4 °F 11.5 °F 14.0 °F 80% 29.59 in 10.0 mi SSW 5.8 mph - N/A   Clear
8:50 AM 19.4 °F 12.8 °F 14.0 °F 80% 29.59 in 10.0 mi SW 4.6 mph - N/A   Clear
9:10 AM 21.2 °F 13.6 °F 15.8 °F 80% 29.59 in 10.0 mi WSW 5.8 mph - N/A   Clear
9:30 AM 24.8 °F 16.1 °F 14.0 °F 64% 29.60 in 10.0 mi West 8.1 mph - N/A   Clear
9:50 AM 24.8 °F 16.9 °F 14.0 °F 64% 29.60 in 10.0 mi West 6.9 mph - N/A   Clear
10:10 AM 26.6 °F 19.1 °F 14.0 °F 59% 29.59 in 10.0 mi West 6.9 mph - N/A   Clear
10:30 AM 28.4 °F 20.4 °F 15.8 °F 59% 29.59 in 10.0 mi WNW 8.1 mph - N/A   Clear
10:50 AM 30.2 °F 23.4 °F 14.0 °F 51% 29.59 in 10.0 mi WNW 6.9 mph - N/A   Clear
11:10 AM 32.0 °F 24.8 °F 15.8 °F 51% 29.58 in 10.0 mi WNW 8.1 mph - N/A   Clear
11:30 AM 33.8 °F 26.4 °F 15.8 °F 48% 29.58 in 10.0 mi WNW 9.2 mph - N/A   Clear
11:50 AM 33.8 °F 27.0 °F 15.8 °F 48% 29.57 in 10.0 mi WNW 8.1 mph - N/A   Clear
12:10 PM 35.6 °F 29.9 °F 17.6 °F 48% 29.56 in 10.0 mi WNW 6.9 mph - N/A   Clear
12:30 PM 39.2 °F 32.0 °F 14.0 °F 36% 29.54 in 10.0 mi NW 11.5 mph - N/A   Clear
12:50 PM 39.2 °F 33.0 °F 12.2 °F 33% 29.53 in 10.0 mi NW 9.2 mph - N/A   Clear
1:10 PM 41.0 °F 34.3 °F 14.0 °F 33% 29.53 in 10.0 mi NW 11.5 mph - N/A   Clear
1:30 PM 41.0 °F 34.7 °F 14.0 °F 33% 29.53 in 10.0 mi NW 10.4 mph - N/A   Clear
1:50 PM 41.0 °F 33.9 °F 12.2 °F 31% 29.53 in 10.0 mi NW 12.7 mph - N/A   Clear
2:10 PM 41.0 °F 35.2 °F 14.0 °F 33% 29.53 in 10.0 mi WNW 9.2 mph - N/A   Clear
2:30 PM 42.8 °F 36.6 °F 15.8 °F 34% 29.53 in 10.0 mi WNW 11.5 mph 19.6 mph N/A   Clear
2:50 PM 42.8 °F 38.0 °F 17.6 °F 36% 29.53 in 10.0 mi WNW 8.1 mph - N/A   Clear
3:10 PM 44.6 °F 38.8 °F 17.6 °F 34% 29.53 in 10.0 mi NW 11.5 mph - N/A   Clear
3:30 PM 44.6 °F 38.8 °F 17.6 °F 34% 29.53 in 10.0 mi NW 11.5 mph - N/A   Clear
3:50 PM 44.6 °F 39.2 °F 17.6 °F 34% 29.53 in 10.0 mi NNW 10.4 mph - N/A   Clear
4:10 PM 44.6 °F 38.1 °F 19.4 °F 37% 29.53 in 10.0 mi NW 13.8 mph - N/A   Clear
4:30 PM 42.8 °F 35.8 °F 19.4 °F 39% 29.54 in 10.0 mi NW 13.8 mph 20.7 mph N/A   Clear
4:50 PM 42.8 °F 36.2 °F 21.2 °F 42% 29.55 in 10.0 mi NW 12.7 mph - N/A   Clear
5:10 PM 39.2 °F 33.0 °F 21.2 °F 49% 29.55 in 10.0 mi NNW 9.2 mph - N/A   Clear
5:30 PM 35.6 °F 29.9 °F 21.2 °F 56% 29.56 in 10.0 mi NW 6.9 mph - N/A   Clear
5:50 PM 33.8 °F 27.0 °F 21.2 °F 60% 29.56 in 10.0 mi NW 8.1 mph - N/A   Clear
6:10 PM 32.0 °F 24.2 °F 21.2 °F 64% 29.57 in 10.0 mi NW 9.2 mph - N/A   Clear
6:30 PM 32.0 °F 25.6 °F 21.2 °F 64% 29.57 in 10.0 mi WNW 6.9 mph - N/A   Clear
6:50 PM 32.0 °F 26.4 °F 21.2 °F 64% 29.57 in 10.0 mi WNW 5.8 mph - N/A   Mostly Cloudy
7:10 PM 33.8 °F 29.6 °F 21.2 °F 60% 29.58 in 10.0 mi West 4.6 mph - N/A   Mostly Cloudy
7:30 PM 32.0 °F 27.5 °F 21.2 °F 64% 29.57 in 10.0 mi West 4.6 mph - N/A   Scattered Clouds
7:50 PM 32.0 °F 26.4 °F 21.2 °F 64% 29.57 in 10.0 mi West 5.8 mph - N/A   Mostly Cloudy
8:10 PM 32.0 °F 26.4 °F 23.0 °F 69% 29.57 in 10.0 mi West 5.8 mph - N/A   Mostly Cloudy
8:30 PM 32.0 °F 26.4 °F 21.2 °F 64% 29.57 in 10.0 mi West 5.8 mph - N/A   Mostly Cloudy
8:50 PM 30.2 °F - 21.2 °F 69% 29.57 in 10.0 mi Calm Calm - N/A   Scattered Clouds
9:10 PM 30.2 °F 25.4 °F 23.0 °F 75% 29.57 in 10.0 mi WNW 4.6 mph - N/A   Scattered Clouds
9:30 PM 30.2 °F 24.3 °F 21.2 °F 69% 29.57 in 10.0 mi West 5.8 mph - N/A   Clear
9:50 PM 30.2 °F 22.6 °F 23.0 °F 75% 29.57 in 10.0 mi WNW 8.1 mph - N/A   Clear
10:10 PM 32.0 °F 24.8 °F 23.0 °F 69% 29.58 in 10.0 mi NW 8.1 mph - N/A   Scattered Clouds
10:30 PM 32.0 °F 24.8 °F 23.0 °F 69% 29.58 in 10.0 mi NW 8.1 mph - N/A   Overcast
10:50 PM 32.0 °F 26.4 °F 23.0 °F 69% 29.58 in 10.0 mi West 5.8 mph - N/A   Overcast
11:10 PM 32.0 °F 26.4 °F 23.0 °F 69% 29.58 in 10.0 mi WNW 5.8 mph - N/A   Overcast
11:30 PM 32.0 °F 24.2 °F 23.0 °F 69% 29.58 in 10.0 mi NW 9.2 mph - N/A   Mostly Cloudy
11:50 PM 32.0 °F 22.1 °F 23.0 °F 69% 29.58 in 10.0 mi NW 13.8 mph - N/A   Mostly Cloudy